Simultaneous Nadir Overpasses (SNOs) Predictions

Prediction of SNOs between AQUA and GOES-15 Satellite Orbit:

Table of predicted SNOs for the next 14.0 days since TLE Epoch: 10/5/2024
Index Date Time (AQUA) AQUA Lat,Lon GOES-15 Lat,Lon Distance(km) Time Diff (sec)
1 10/06/2024 22:14:44 0.24, 61.11 0.21, 61.27 18.32 80
2 10/08/2024 21:56:50 -0.68, 65.49 0.22, 61.28 478.25 80
3 10/09/2024 10:16:46 -0.32, 60.66 -0.19, 61.30 72.59 80
4 10/11/2024 09:58:48 0.60, 65.06 -0.20, 61.32 425.53 80
5 10/11/2024 22:18:34 0.37, 60.27 0.17, 61.30 116.33 80
6 10/13/2024 22:00:32 -0.56, 64.68 0.18, 61.32 382.81 80
7 10/14/2024 10:20:24 -0.49, 59.88 -0.16, 61.36 168.84 80
8 10/16/2024 10:02:18 0.44, 64.31 -0.16, 61.38 332.56 80
9 10/16/2024 22:22:02 0.52, 59.52 0.14, 61.35 206.95 80
10 10/18/2024 22:03:52 -0.41, 63.97 0.16, 61.38 295.14 80
